This is the latest recevied weather packets stored in our database for station/object WD4IXD-WX. If no packets are shown the sender has not sent any weather packets the latest 10 day(s).
| Time | Temp. | Humidity | Pressure | Rain* | Wind** | Luminosity | Snow |
|---|---|---|---|---|---|---|---|
| 1788563115 | 22.78° C | 25% | 1025.2 hPa | 0 mm | - | 146 W/m² | - |
| 1788562804 | 23.33° C | 25% | 1025.2 hPa | 0 mm | - | 167 W/m² | - |
| 1788562515 | 23.33° C | 25% | 1025.2 hPa | 0 mm | - | 160 W/m² | - |
| 1788562203 | 23.33° C | 24% | 1025.2 hPa | 0 mm | - | 557 W/m² | - |
| 1788561915 | 23.33° C | 24% | 1025.1 hPa | 0 mm | - | 585 W/m² | - |
| 1788561604 | 23.89° C | 23% | 1025.1 hPa | 0 mm | - | 633 W/m² | - |
| 1788561316 | 23.33° C | 23% | 1025.1 hPa | 0 mm | - | 636 W/m² | - |
| 1788561004 | 23.33° C | 24% | 1025.1 hPa | 0 mm | - | 661 W/m² | - |
| 1788560715 | 23.33° C | 23% | 1025.2 hPa | 0 mm | - | 128 W/m² | - |
| 1788560404 | 23.89° C | 23% | 1025.1 hPa | 0 mm | - | 111 W/m² | - |
| 1788560115 | 23.89° C | 23% | 1025.1 hPa | 0 mm | - | 680 W/m² | - |
| 1788559804 | 23.89° C | 22% | 1025.1 hPa | 0 mm | - | 684 W/m² | - |
| 1788559515 | 23.89° C | 23% | 1025.1 hPa | 0 mm | - | 675 W/m² | - |
| 1788559204 | 23.89° C | 22% | 1025.1 hPa | 0 mm | - | 682 W/m² | - |
| 1788558915 | 24.44° C | 22% | 1025.2 hPa | 0 mm | - | 693 W/m² | - |
| 1788558603 | 24.44° C | 23% | 1025.3 hPa | 0 mm | - | 726 W/m² | - |
| 1788558315 | 24.44° C | 23% | 1025.2 hPa | 0 mm | - | 759 W/m² | - |
| 1788558015 | 23.89° C | 24% | 1025.3 hPa | 0 mm | - | 798 W/m² | - |
| 1788557704 | 23.33° C | 24% | 1025.3 hPa | 0 mm | - | 949 W/m² | - |
| 1788557415 | 23.33° C | 24% | 1025.3 hPa | 0 mm | - | 680 W/m² | - |
| 1788557104 | 23.33° C | 24% | 1025.4 hPa | 0 mm | - | 744 W/m² | - |
| 1788556814 | 22.78° C | 24% | 1025.4 hPa | 0 mm | - | 826 W/m² | - |
| 1788556504 | 22.22° C | 24% | 1025.3 hPa | 0 mm | - | 844 W/m² | - |
| 1788556215 | 22.22° C | 24% | 1025.3 hPa | 0 mm | - | 230 W/m² | - |
| 1788555903 | 22.22° C | 25% | 1025.4 hPa | 0 mm | - | 243 W/m² | - |
* Rain latest hour (hover to see other rain measurements)
** Current wind speed in m/s (hover to see current wind gust speed)